Wind_Speed
4 5 6 8 9 9 8 6 6 4 6 8 8 10 4 5 1 2 5 3 4 3 1 2 1 2 1 5 3 6 14 10 7 2 4 7 11 14 16 21 24 24 25 24 26 27 24 23 22 22 21 20 20 18 17 16 15 14 14 15 15 16 17 17 18 18 17 16 15 14 15 16 15 15 14 13 13 12 12 11 11 11 9 9 8 8 8 8 8 8 8 8 8 8 8 8 7
5 6 7 8 10 8 5 5 6 5 8 8 8 10 3 7 1 7 6 1 1 4 1 2 2 1 2 6 5 5 10 13 13 9 8 13 14 13 18 22 24 24 24 24 25 25 23 24 23 22 21 21 20 19 18 17 16 14 14 15 16 16 17 17 18 18 17 15 14 15 16 16 15 15 14 13 12 12 11 10 10 9 9 8 8 8 7 7 7 6 7 7 7 8 8 8 7
7 7 8 8 9 8 4 4 7 7 8 8 8 6 4 4 4 4 1 3 4 4 3 1 1 2 1 3 1 0 5 12 13 10 9 14 13 14 19 23 24 23 24 24 24 23 23 25 24 23 22 21 21 20 19 18 17 15 15 15 16 17 17 17 18 17 16 15 15 16 16 16 15 14 13 12 12 11 10 10 9 8 8 8 8 8 7 6 6 6 6 6 7 8 8 8 7
6 7 9 8 6 6 5 6 7 8 8 8 6 3 3 4 1 3 4 3 2 3 4 3 3 1 3 4 3 4 7 10 10 9 8 12 13 17 22 25 24 22 23 23 23 22 23 25 24 23 23 22 21 21 20 19 18 17 16 16 16 17 17 17 17 17 15 16 16 16 16 16 14 13 12 12 11 11 10 9 8 8 8 8 8 7 7 6 6 6 6 7 7 7 8 7 7
7 8 10 9 5 3 5 6 6 8 8 8 6 4 5 2 3 3 4 2 2 3 4 5 3 3 2 4 3 4 6 6 10 11 9 13 17 19 23 26 22 20 21 21 22 21 24 26 24 24 23 22 22 21 20 19 18 17 16 16 17 16 17 17 17 16 16 16 16 16 15 15 14 13 12 11 11 10 9 8 8 8 8 9 8 7 7 7 7 7 6 7 7 7 7 6 7
8 8 9 9 6 4 5 7 7 9 10 11 9 3 6 2 3 2 3 2 3 3 4 5 3 6 3 7 6 6 5 4 9 11 12 16 20 20 22 27 23 20 20 20 21 21 25 26 23 24 23 23 22 22 20 19 18 17 17 16 16 16 16 17 17 17 17 16 16 15 15 14 13 13 12 11 10 9 9 8 7 7 8 9 9 8 8 8 7 7 7 7 7 7 7 6 5
9 6 7 7 6 4 7 8 8 9 6 7 10 5 4 2 1 1 3 4 6 5 5 4 4 6 5 5 4 8 7 5 8 10 15 18 21 20 20 25 24 20 19 20 20 21 26 25 23 24 23 23 22 22 21 19 19 18 17 17 16 16 16 17 17 17 16 15 15 15 14 14 13 12 11 10 9 8 8 7 6 6 7 9 10 8 9 9 8 8 8 8 8 8 7 5 5
10 7 4 6 6 5 7 9 9 10 2 1 6 5 4 3 2 4 3 4 5 7 6 5 8 6 4 5 3 6 7 7 11 14 18 20 20 19 18 22 23 19 18 19 20 22 25 25 24 22 22 22 22 21 20 20 19 18 18 17 16 16 17 17 16 16 15 15 14 14 13 13 12 11 10 10 9 8 8 7 5 5 6 8 9 8 8 9 8 8 8 8 7 7 7 6 5
10 7 4 6 7 6 8 9 9 12 6 1 4 1 1 1 3 5 4 4 3 5 7 6 8 5 4 5 6 4 5 10 15 18 19 20 19 17 17 20 22 21 19 19 20 22 24 25 23 22 22 22 22 21 20 19 18 19 18 17 17 16 16 16 15 15 14 14 13 13 12 11 11 11 10 10 9 7 7 7 5 5 6 7 8 7 8 8 8 8 7 7 7 7 7 6 6
7 6 5 5 6 8 9 8 9 10 7 4 4 4 4 3 3 5 6 4 4 5 6 5 7 7 8 8 6 4 7 13 16 17 18 19 19 17 17 18 19 21 21 20 20 22 24 24 23 22 22 21 21 20 19 19 18 18 18 17 17 16 16 15 15 14 13 13 12 12 11 10 10 10 10 10 9 8 7 6 5 5 5 6 7 7 8 8 8 8 7 7 8 7 7 7 7
6 6 6 6 7 9 8 9 10 8 4 3 5 5 4 3 4 6 7 5 5 6 7 6 7 7 11 8 4 5 10 14 15 16 18 18 17 17 17 18 17 18 20 21 21 21 23 23 22 22 22 22 21 21 19 18 17 17 17 17 17 17 16 15 15 14 14 12 12 11 11 10 10 10 10 9 8 8 7 6 6 6 5 6 6 7 9 8 8 8 7 7 7 7 7 8 7
6 6 6 7 7 7 9 10 8 4 2 5 8 5 3 2 4 6 8 7 5 8 9 7 5 6 9 8 4 5 11 13 15 16 17 16 17 18 17 17 16 16 18 21 21 20 22 23 22 21 21 21 21 21 20 19 18 17 17 17 17 16 15 15 14 14 13 12 12 11 11 11 10 11 10 9 9 8 6 7 7 7 6 6 7 8 9 8 8 8 8 7 6 7 8 8 5
7 6 7 7 7 9 10 9 7 4 4 8 4 7 3 2 5 6 8 8 7 9 10 9 5 4 6 6 4 4 9 12 15 16 16 16 17 17 17 16 17 17 17 19 21 20 19 20 21 20 20 20 20 20 20 19 18 17 17 17 17 16 15 14 13 13 12 12 11 11 10 10 11 11 11 9 9 8 7 7 8 7 6 6 8 8 8 7 8 8 8 7 6 7 7 5 4
7 6 6 7 8 10 8 8 7 7 8 4 6 7 1 3 5 6 8 10 9 9 9 11 8 9 10 4 3 3 7 13 16 16 15 16 17 17 17 16 17 17 17 17 19 21 19 18 19 20 20 19 19 19 19 20 19 19 18 17 17 17 16 14 13 12 11 11 11 11 10 10 11 11 11 10 9 9 8 7 7 7 7 7 8 8 7 8 8 8 8 8 6 6 5 3 4
6 5 5 7 8 9 7 8 9 8 4 8 7 2 1 5 5 6 10 11 10 7 5 10 7 6 10 8 6 6 10 15 16 16 16 16 17 17 17 16 16 16 15 16 17 20 19 18 18 19 20 18 18 19 20 20 19 19 18 18 17 17 17 15 14 13 12 12 12 11 11 11 11 11 11 11 10 10 9 8 7 7 6 6 7 7 7 7 8 9 9 9 7 6 4 3 3
6 6 5 7 8 9 7 7 9 8 2 11 6 1 2 6 3 7 9 9 11 4 5 6 5 3 9 10 10 14 15 18 17 16 17 17 17 16 16 15 15 15 14 14 15 18 18 16 17 17 18 18 18 20 21 20 19 19 19 18 18 17 17 16 14 13 13 12 12 12 11 11 10 10 11 11 10 10 10 9 8 7 6 6 6 6 6 6 8 9 10 10 8 6 5 4 3
5 6 7 7 8 10 6 7 6 3 1 7 5 4 4 6 2 5 5 8 13 4 6 8 7 4 5 8 16 21 18 19 19 17 18 17 17 16 15 15 14 14 13 12 13 17 17 15 15 15 17 17 16 17 18 17 18 20 20 19 18 18 17 16 15 14 14 13 14 13 11 11 9 9 10 10 10 10 10 10 9 8 6 6 5 5 5 6 7 9 10 10 9 7 6 6 5
6 6 8 7 8 9 5 6 3 4 3 3 5 5 4 7 2 3 4 10 13 8 9 9 8 3 8 16 20 22 21 21 20 19 19 17 15 15 15 14 14 13 13 12 11 14 17 16 15 15 15 15 14 13 13 14 17 18 18 18 18 19 18 16 15 14 14 13 14 13 11 11 9 9 9 9 10 10 11 10 10 9 7 6 5 5 5 6 8 9 10 10 10 7 6 7 7
7 7 7 8 9 5 2 4 5 5 6 5 4 4 4 6 4 1 6 10 13 13 11 10 9 7 14 16 16 19 21 22 21 19 19 17 15 15 15 14 14 13 12 12 11 12 13 15 16 16 15 16 15 14 14 14 16 17 16 17 16 18 19 17 15 14 14 12 13 14 12 13 11 9 10 9 9 10 10 10 11 9 8 8 6 6 6 6 8 9 10 10 9 7 6 9 9
8 8 7 8 9 4 2 3 5 5 6 6 5 5 6 4 3 3 7 9 12 14 12 11 12 11 14 14 15 18 21 20 19 19 18 17 15 15 15 15 14 13 13 11 11 10 10 12 14 16 16 16 16 15 14 14 16 16 15 15 13 16 18 17 16 13 14 12 13 15 14 13 12 11 12 11 10 10 9 10 11 9 8 8 7 6 7 8 8 8 10 11 10 8 8 10 9
8 8 9 7 3 4 2 2 5 4 4 7 5 6 7 2 3 6 7 9 9 11 11 12 13 15 16 14 13 14 16 18 18 17 17 16 16 15 14 15 14 13 13 11 11 10 9 9 10 14 16 14 13 13 12 14 16 16 15 13 11 14 16 16 17 16 15 14 13 15 14 12 10 10 11 11 10 10 9 8 9 10 9 9 7 7 8 8 9 9 10 11 11 10 9 9 7
8 7 12 11 4 4 4 2 3 3 5 7 6 7 6 4 5 7 8 9 6 7 11 14 13 15 18 15 14 13 13 14 16 16 16 16 15 14 14 14 13 12 12 11 11 10 9 9 9 11 14 14 12 11 12 12 13 15 15 13 10 12 13 13 16 17 16 15 14 15 15 13 12 11 10 11 10 8 8 7 8 10 10 9 7 7 8 8 9 9 11 11 11 10 9 8 6
8 7 11 12 7 7 4 3 3 3 7 8 6 6 5 7 7 5 9 7 1 2 6 10 10 16 18 16 13 15 16 13 14 16 16 16 15 14 14 14 13 12 11 10 10 10 9 9 8 8 10 11 11 12 15 13 14 16 12 11 11 11 13 14 16 17 16 15 15 17 16 14 14 12 10 10 8 7 7 7 8 9 9 8 6 6 7 7 7 8 9 10 10 10 10 9 8
9 9 8 7 7 8 6 6 6 6 9 6 6 7 5 9 5 4 8 3 4 1 5 6 13 17 14 14 11 14 17 16 15 16 16 15 15 15 14 13 13 12 11 10 10 9 9 8 8 7 6 7 6 8 13 12 14 19 15 13 14 12 14 16 18 18 16 15 15 17 13 10 11 9 8 6 5 6 5 3 4 5 6 4 5 5 6 5 5 6 6 7 7 8 9 9 9
12 12 8 5 7 8 8 8 8 7 7 6 7 8 6 6 2 4 5 5 4 4 8 9 13 13 11 13 14 15 16 16 16 17 16 15 15 16 13 13 13 12 12 11 10 9 9 8 7 7 6 5 5 3 5 6 8 13 14 14 15 14 15 15 14 14 14 14 14 13 10 9 8 7 5 5 5 4 3 1 2 2 3 3 4 4 4 4 4 4 5 6 6 6 8 8 9
10 13 9 6 8 8 9 8 8 8 6 5 7 8 5 3 3 4 5 5 4 7 10 10 10 10 8 9 11 13 16 15 15 17 17 16 16 16 14 14 13 12 13 12 10 9 9 9 7 7 6 4 5 3 2 2 2 5 8 10 10 12 12 11 10 11 12 14 13 12 10 8 6 5 5 4 4 3 2 1 2 3 4 3 4 4 4 3 3 4 5 6 5 5 7 8 9
2 9 8 7 10 8 7 7 9 9 7 6 9 8 5 5 6 3 6 5 6 10 12 12 11 9 9 10 10 11 14 15 16 17 16 17 17 16 15 16 15 14 14 13 11 10 9 9 8 7 6 4 3 4 2 0 1 3 4 5 5 6 7 7 8 9 9 10 10 10 9 7 5 4 6 4 3 2 2 1 3 5 6 5 4 4 4 2 2 4 5 6 5 6 7 8 9
2 7 8 10 12 9 8 8 9 8 7 9 11 7 6 7 7 3 8 6 6 11 14 13 11 11 12 14 13 11 12 16 18 17 16 16 16 16 16 15 16 16 15 14 11 11 10 8 9 8 7 5 1 2 3 0 1 2 2 3 3 3 4 5 6 6 5 5 6 6 6 6 5 4 6 5 4 3 2 2 4 6 7 8 6 5 4 2 3 3 3 5 4 6 7 7 7
6 8 10 11 12 11 11 10 10 10 8 9 10 6 8 10 6 8 8 7 6 9 14 14 13 13 13 14 13 12 12 15 17 17 17 17 15 16 15 14 15 16 15 14 13 14 11 9 10 8 8 6 2 2 2 1 0 1 2 2 3 3 3 4 4 3 3 4 4 4 4 4 4 3 5 4 5 4 2 3 6 6 7 9 9 7 5 4 4 3 3 5 5 6 7 7 7
9 9 9 8 9 10 11 9 10 11 7 8 9 7 9 10 9 8 6 7 8 8 11 13 13 12 13 14 13 12 13 14 14 16 17 16 16 16 15 14 15 16 16 15 15 15 12 11 10 8 8 6 4 2 2 1 1 1 1 2 2 2 2 3 3 2 2 4 5 4 4 4 2 2 2 4 4 3 2 5 6 6 7 9 10 9 7 6 5 5 6 6 7 7 7 7 6
8 9 8 7 8 7 12 9 9 11 7 8 11 7 7 9 12 7 5 6 9 9 9 10 11 11 11 12 11 10 11 12 13 14 14 13 14 18 18 17 17 16 17 17 17 16 13 12 10 8 7 6 5 4 3 3 2 1 1 2 2 2 2 2 3 3 4 4 4 5 5 3 2 2 1 3 3 3 4 7 7 6 7 8 10 10 8 7 7 7 8 8 8 8 7 6 4
7 8 6 7 7 6 11 9 10 11 8 11 13 7 7 9 12 8 5 6 8 9 10 10 11 11 7 6 8 8 8 10 11 12 13 12 13 17 19 18 17 17 18 18 17 16 14 12 11 9 8 6 6 5 4 4 3 3 2 3 2 2 2 1 1 2 3 4 2 4 6 4 3 2 2 2 3 4 6 7 6 5 5 8 10 11 9 9 8 8 7 8 10 8 7 7 5
6 8 6 7 7 7 8 8 11 10 7 12 13 9 6 8 11 8 6 7 8 9 9 10 10 11 10 5 4 5 7 8 10 11 12 13 14 16 18 18 17 18 18 17 17 16 14 13 11 10 9 7 7 6 5 5 4 4 3 3 2 3 3 1 2 2 2 2 1 4 6 4 4 3 3 3 4 6 6 6 5 5 5 8 10 10 10 9 9 9 8 8 9 9 8 9 7
6 7 5 5 8 5 6 8 10 9 7 11 13 11 7 9 10 8 8 8 9 9 9 8 9 10 12 9 7 8 8 8 9 13 16 15 15 18 19 20 18 17 18 17 17 16 14 13 11 10 9 8 8 7 6 5 5 4 4 4 3 3 3 2 2 2 3 3 3 5 5 4 4 4 4 4 5 5 5 5 5 5 7 8 9 9 10 10 9 9 9 9 9 9 10 11 8
6 6 4 5 7 8 4 9 9 10 10 13 12 10 12 8 8 7 9 8 8 9 8 7 9 9 10 11 13 11 8 8 10 14 19 18 19 22 21 21 19 17 18 17 17 16 14 14 12 11 10 9 9 8 7 6 5 4 4 4 4 3 4 3 3 3 3 3 4 4 3 3 3 3 3 3 3 4 4 5 6 6 7 8 9 10 10 10 10 9 8 9 10 9 9 6 6
3 4 6 7 6 8 6 9 6 6 8 12 10 8 14 10 6 7 8 6 7 8 8 7 8 8 9 11 13 13 12 13 12 14 18 19 21 23 23 21 19 16 17 17 17 16 14 14 13 12 11 10 9 8 8 7 6 5 4 5 5 4 4 4 4 4 4 4 4 3 3 3 2 2 2 2 3 4 4 5 6 6 7 9 10 11 12 11 10 9 8 8 9 10 9 3 4
7 5 6 7 5 9 9 8 7 4 5 10 11 9 11 10 6 6 6 6 8 8 9 8 8 8 8 10 10 13 15 14 15 17 19 22 23 22 21 20 19 17 17 18 17 17 15 14 14 13 12 11 9 8 7 6 6 6 5 5 5 5 4 4 5 5 5 5 4 4 4 3 2 2 1 1 2 4 4 5 5 5 7 8 9 10 12 13 11 9 9 11 11 11 10 6 4
7 8 6 7 7 6 5 6 7 4 6 9 10 8 9 10 8 6 5 8 10 10 10 10 10 10 8 10 10 10 13 13 16 19 20 25 24 21 19 18 19 18 18 19 18 17 15 14 14 13 13 11 9 7 6 5 5 5 5 5 5 5 5 5 6 6 6 5 5 5 4 4 3 3 2 1 0 3 4 4 4 4 5 5 5 6 9 11 11 9 10 13 13 11 10 8 6
7 8 7 7 7 5 3 6 6 5 5 9 9 8 9 12 11 8 7 9 10 10 10 10 11 10 9 9 8 8 11 13 15 18 20 24 23 20 17 17 18 18 18 19 18 18 16 15 14 13 13 12 10 7 6 6 5 5 5 5 5 6 6 7 8 7 6 6 6 6 5 5 4 3 3 2 1 0 1 2 3 3 4 3 3 4 6 8 8 7 8 9 9 10 10 8 7
8 8 8 7 8 8 2 5 6 4 4 9 9 6 6 9 9 8 9 10 8 6 7 9 10 10 9 9 8 8 10 11 13 14 16 19 20 19 17 16 17 18 18 18 19 19 17 16 15 15 14 13 11 9 7 6 7 7 7 7 7 8 8 8 8 8 7 7 7 6 6 6 5 4 3 2 2 2 1 0 0 1 1 2 3 3 3 3 4 4 3 4 5 7 6 4 3
9 9 9 8 8 8 5 3 4 4 6 8 9 7 6 9 12 11 10 9 7 6 8 9 9 9 9 8 7 6 8 10 12 13 12 13 17 19 19 18 18 18 18 19 20 19 18 18 17 16 15 14 13 11 9 8 9 9 9 9 8 9 9 8 8 7 6 6 7 7 6 6 5 5 4 4 4 4 2 2 1 2 2 1 0 0 0 1 1 1 1 1 1 2 2 1 3
8 10 10 11 9 6 5 4 5 6 7 8 8 8 7 10 14 12 8 8 9 9 11 12 11 11 9 8 7 7 7 7 8 11 11 12 15 19 20 20 20 19 19 20 20 20 19 19 18 17 16 15 15 14 11 10 10 10 11 10 9 9 8 8 7 7 6 6 7 6 6 6 6 6 6 5 5 5 4 3 2 3 4 4 3 1 2 3 2 2 4 4 3 3 3 2 5
7 5 8 10 10 7 8 8 7 7 5 5 7 8 7 7 8 8 8 9 11 10 10 11 11 11 10 9 9 8 7 6 6 9 11 13 14 16 19 21 22 21 20 20 20 21 20 20 20 19 17 17 17 16 14 12 11 11 11 10 10 9 9 8 8 8 7 7 7 7 7 7 6 7 6 6 6 6 5 4 4 4 4 4 3 3 3 4 4 5 6 6 5 6 5 3 5
4 1 5 9 10 9 9 9 8 8 5 5 8 9 8 6 5 6 7 9 10 10 9 10 9 9 9 6 5 5 4 4 5 7 8 10 12 14 17 20 21 21 20 21 21 22 22 21 21 19 18 18 18 18 16 14 13 12 12 11 10 10 9 10 10 9 8 8 8 7 7 7 7 7 6 7 6 6 6 5 5 5 4 4 4 4 5 5 6 7 7 7 6 7 7 5 5
2 1 6 8 10 10 9 9 8 8 7 6 9 9 8 8 6 6 8 9 10 10 10 9 7 6 5 3 2 2 2 2 3 4 5 6 10 14 16 18 19 20 21 22 22 23 23 22 21 20 19 18 19 20 18 15 13 14 13 11 11 10 11 11 10 10 9 9 9 8 8 7 7 7 7 7 7 7 7 6 6 6 6 6 5 6 6 6 7 7 7 7 7 7 7 7 6
1 3 8 8 9 9 8 8 8 7 7 8 9 8 7 7 5 6 8 9 11 9 7 6 5 4 2 2 1 1 1 1 2 3 3 4 7 11 14 16 18 20 21 22 22 23 24 24 22 21 19 18 20 21 20 17 15 14 14 13 12 12 12 12 11 11 10 9 9 8 8 8 8 8 8 8 8 8 7 7 7 6 7 7 7 7 6 6 6 7 7 7 7 7 7 8 7
4 5 9 9 8 7 6 6 7 7 7 10 11 10 8 6 6 6 5 3 4 5 7 5 5 4 3 2 0 0 2 3 3 4 3 2 4 8 12 15 18 20 21 21 22 23 25 25 25 24 21 19 20 21 21 18 16 15 14 14 14 13 13 13 12 11 10 10 9 9 8 8 8 8 8 8 8 7 7 7 7 7 6 6 7 6 6 6 6 6 7 7 8 8 8 8 8
7 8 8 7 6 6 6 6 6 7 8 9 9 9 8 7 7 3 4 4 1 4 7 6 4 2 3 3 3 4 5 5 6 6 5 4 4 6 11 15 17 19 21 22 22 24 25 26 27 27 24 21 21 22 22 20 17 16 15 15 15 15 14 14 13 13 12 11 10 9 9 8 8 8 8 8 7 7 7 7 6 6 6 6 6 6 6 6 6 7 7 7 8 8 8 8 8
8 8 7 6 6 5 6 6 6 8 7 3 4 6 7 7 7 2 6 7 5 3 3 5 4 2 4 3 4 5 5 5 5 6 5 5 4 4 9 13 16 18 20 21 21 23 24 24 26 27 26 24 23 23 23 21 19 17 16 16 16 15 15 14 14 14 14 13 12 11 10 9 9 9 9 8 8 7 7 6 6 6 6 6 6 6 6 6 6 7 7 8 8 8 9 9 8
9 8 6 6 5 6 8 7 6 7 5 2 1 3 5 7 5 4 8 7 7 6 4 5 5 4 3 3 4 4 5 6 6 6 6 5 4 2 5 9 13 16 18 19 20 21 21 22 25 26 26 25 24 24 24 22 20 18 16 16 17 16 16 15 14 15 15 14 14 13 11 10 10 9 9 9 9 8 7 7 7 7 7 6 6 6 6 6 6 7 7 7 8 8 8 8 8
8 8 7 7 6 6 7 6 6 6 3 4 3 2 5 6 1 4 6 7 7 7 8 6 5 4 3 3 4 5 6 7 6 6 7 5 4 1 3 7 11 14 16 17 18 19 19 20 23 25 25 25 24 24 25 23 21 19 18 17 17 17 17 16 15 15 15 14 14 15 13 12 11 11 11 10 10 9 8 8 8 8 8 7 6 6 6 6 6 6 7 7 7 7 6 7 7
6 7 8 7 6 6 6 6 6 4 4 4 5 4 4 2 5 5 6 8 8 8 8 8 6 5 4 4 4 5 6 7 6 6 7 6 4 2 2 6 9 11 13 15 15 15 16 17 20 23 23 23 23 23 24 24 22 20 19 19 18 17 17 17 16 15 16 15 14 15 14 13 13 13 12 13 12 10 10 9 9 9 9 8 7 6 5 5 5 5 6 6 5 5 5 5 5
3 5 7 7 6 6 7 7 4 2 6 7 6 7 5 3 7 8 8 9 9 9 9 8 7 7 5 4 5 5 7 7 7 7 7 7 6 3 2 5 6 8 10 12 13 13 13 14 17 20 20 20 20 21 22 23 22 20 20 19 19 18 17 17 16 16 16 15 15 15 15 14 15 15 15 15 14 13 11 11 10 10 9 9 8 7 6 6 5 5 5 5 5 4 4 4 4
6 5 4 5 7 6 5 6 4 5 8 7 7 9 8 6 5 8 11 10 9 9 9 8 7 7 6 6 6 7 7 8 8 8 7 7 7 6 4 4 6 7 9 10 10 10 11 12 14 17 18 17 18 18 19 20 20 19 19 19 19 18 17 16 15 15 16 16 15 15 15 15 15 16 17 17 16 15 14 13 11 11 10 10 9 9 8 7 6 5 5 4 4 4 4 4 3
10 8 5 5 6 6 5 6 6 7 8 6 8 10 9 7 4 8 11 11 10 10 9 9 9 7 7 7 8 8 8 7 7 8 7 7 7 7 6 5 7 9 9 10 9 8 9 10 11 14 15 15 15 15 15 16 18 17 17 17 18 17 16 16 15 14 15 16 16 16 15 16 16 16 17 18 18 17 16 15 13 12 12 11 10 10 9 9 8 7 6 5 4 4 4 3 3
11 10 8 6 6 6 6 5 5 7 8 7 8 9 6 5 4 7 10 11 11 11 9 9 8 7 7 6 7 8 7 7 7 7 8 7 8 8 8 7 7 9 10 10 9 8 9 9 9 11 12 12 11 12 12 13 14 15 14 14 15 15 14 14 14 14 15 15 15 16 16 16 16 17 18 19 19 18 18 17 15 14 14 13 12 12 11 10 9 8 7 6 6 5 5 4 3
7 8 8 8 7 6 6 6 7 7 8 7 7 8 5 2 0 4 7 9 10 10 9 7 8 9 8 7 8 8 8 8 7 8 8 8 8 9 9 8 8 11 12 12 10 9 8 8 8 8 9 11 11 10 10 10 10 11 13 12 12 12 13 14 14 14 15 16 16 16 16 16 17 17 18 19 19 19 19 18 17 16 15 15 14 13 12 11 10 9 8 7 7 7 6 5 4
6 6 6 6 6 6 7 8 7 7 8 8 7 8 5 1 2 2 4 7 9 10 9 8 9 10 9 9 9 8 9 8 8 8 8 8 9 10 11 11 11 12 14 14 12 10 9 8 7 6 5 6 8 9 9 9 9 9 11 11 10 10 11 15 16 16 15 15 16 17 17 17 18 19 19 20 20 20 20 19 18 18 17 16 15 15 14 13 12 11 11 9 9 8 7 6 5
Wind_Direction
236 248 249 254 252 256 247 230 248 211 231 254 250 262 216 172 298 278 239 222 240 149 118 318 207 277 340 295 246 81 36 22 14 45 148 110 132 135 129 128 128 129 127 132 140 143 149 153 153 152 152 149 147 146 145 145 147 152 160 163 165 164 164 163 162 163 163 156 146 141 142 147 145 140 139 141 143 146 149 150 148 145 142 144 142 137 130 117 114 117 113 107 105 102 102 103 101
242 241 240 246 242 248 244 209 253 241 225 242 237 250 171 123 182 239 240 231 15 69 132 235 198 206 27 319 327 74 63 55 56 73 106 123 130 125 127 127 126 126 128 134 138 142 149 154 154 154 153 150 148 146 145 144 145 150 156 160 161 162 163 163 164 163 160 154 145 141 142 144 143 141 142 143 144 145 147 146 142 139 137 138 135 134 129 123 125 127 118 114 112 109 111 110 104
252 243 225 227 231 239 263 227 245 258 239 248 240 220 145 165 226 211 151 48 56 75 206 197 174 147 157 251 308 138 101 78 80 90 110 134 134 130 129 125 126 127 131 136 139 141 148 156 156 154 154 152 150 148 146 145 147 151 156 159 160 161 162 164 164 162 159 153 147 142 142 145 145 144 144 144 142 138 136 134 133 130 129 131 133 135 135 136 136 132 126 123 120 115 116 111 104
249 247 233 233 226 221 248 239 236 258 253 260 255 133 111 239 291 69 86 55 82 146 198 183 169 129 287 237 124 93 99 92 97 101 122 136 134 137 131 124 128 129 132 136 140 141 149 157 155 155 156 154 152 149 148 147 150 151 156 159 158 160 161 164 162 161 157 151 148 145 146 148 147 145 143 141 137 132 128 127 128 126 125 127 131 134 136 141 141 137 134 131 126 120 121 112 107
242 242 237 246 246 235 246 246 239 248 253 263 262 79 54 314 12 52 107 103 189 183 183 193 174 138 326 9 67 92 90 97 106 111 124 127 133 136 129 126 128 131 132 135 140 143 151 157 155 157 157 156 154 151 149 149 151 151 155 157 157 158 159 162 161 158 154 150 149 148 150 149 145 143 141 138 135 133 131 128 129 128 129 130 130 136 143 144 146 144 138 138 134 127 127 119 117
236 231 224 242 268 300 266 247 242 242 247 257 264 46 55 12 18 79 125 169 193 203 196 197 193 168 137 43 41 61 80 120 112 115 126 131 135 133 131 129 127 130 133 137 139 143 152 156 157 158 158 158 156 153 151 151 152 152 154 156 156 155 157 158 156 154 151 150 150 152 152 149 146 143 140 138 136 135 136 136 135 129 130 136 131 136 150 149 143 142 141 140 135 129 127 121 123
236 227 207 226 251 259 252 248 247 251 241 243 267 327 46 72 19 209 174 194 188 194 206 206 194 171 144 121 91 53 66 120 117 122 130 133 135 135 138 131 125 130 135 139 139 143 153 156 158 160 160 159 157 155 153 153 154 153 155 156 157 156 156 155 154 153 151 153 154 156 155 151 151 148 146 142 139 138 140 142 143 133 129 139 138 138 154 154 140 141 146 138 132 135 137 132 125
241 243 212 229 240 217 238 250 251 254 221 104 285 330 31 57 338 276 203 204 201 180 191 211 197 170 137 155 117 54 51 81 111 123 128 132 135 136 137 128 125 133 137 138 139 143 153 156 157 160 160 160 160 158 156 155 155 156 156 156 157 157 157 156 156 156 156 158 160 161 159 157 158 157 154 148 144 143 145 149 153 143 132 140 145 147 156 155 143 143 147 139 135 142 147 137 120
232 233 229 239 247 234 237 246 248 251 247 289 267 239 49 334 308 277 244 221 199 182 189 199 203 187 137 99 79 96 85 93 114 122 129 135 135 133 134 132 132 137 137 137 139 144 153 156 156 159 160 162 163 161 159 158 158 159 158 157 157 158 159 159 159 160 161 163 165 164 163 165 165 165 162 154 150 149 150 157 163 155 143 141 147 155 157 155 155 158 160 153 143 142 144 128 109
223 221 241 245 248 251 242 246 246 246 253 268 247 190 185 225 249 256 257 234 182 193 185 189 215 187 137 107 99 134 122 119 125 127 134 137 135 134 134 134 135 136 134 135 140 142 151 156 158 159 159 162 165 164 162 161 162 161 160 159 159 160 162 163 163 163 164 166 166 165 165 169 171 171 169 162 157 155 152 158 167 163 155 145 146 153 156 159 165 168 166 158 147 141 140 126 114
224 210 244 257 245 250 246 249 243 232 220 245 244 203 187 218 251 252 261 252 185 189 183 200 222 164 129 116 104 116 125 133 132 132 138 139 136 133 132 130 132 133 130 133 136 140 149 157 160 160 161 162 164 166 165 167 167 164 163 164 165 165 166 167 167 165 166 167 166 167 167 171 176 179 179 171 166 162 153 158 165 165 162 154 151 151 155 161 164 160 155 158 154 150 144 133 122
239 213 222 246 247 251 251 256 257 252 147 230 229 173 149 230 250 246 250 248 195 196 188 191 221 172 143 129 114 123 137 144 134 137 143 138 134 131 130 128 128 129 128 130 131 137 148 156 160 161 166 165 165 167 168 171 171 169 168 169 170 169 169 170 170 167 165 166 167 170 170 172 177 183 185 178 174 170 161 164 168 169 167 160 157 157 162 167 164 158 160 168 164 155 149 143 135
243 238 232 242 253 258 260 269 273 283 263 242 204 112 97 256 255 254 254 253 224 212 187 186 219 141 117 114 120 147 146 144 138 142 144 136 134 130 128 127 126 128 129 131 132 136 144 153 160 163 168 168 167 169 170 172 173 174 174 174 175 172 171 172 173 170 165 165 167 169 169 171 177 181 184 181 177 174 171 173 173 173 172 168 165 165 171 173 169 166 168 173 164 157 158 158 147
239 249 260 257 254 260 266 274 266 263 256 211 107 96 111 264 269 271 265 257 239 228 187 180 195 115 102 110 129 192 161 143 143 143 141 136 134 130 128 129 128 129 130 133 134 136 140 149 158 162 163 165 167 171 175 177 177 177 178 177 178 178 174 175 176 171 166 165 166 166 166 167 169 173 179 181 178 174 175 179 180 178 176 175 173 171 174 177 178 172 169 169 161 163 170 160 138
248 256 267 262 260 257 246 253 261 269 260 105 104 124 234 261 258 261 258 253 243 234 160 158 200 143 144 186 166 176 165 146 147 142 141 138 132 130 131 132 130 130 131 134 136 136 139 146 152 157 159 162 167 172 178 180 181 180 181 181 181 181 178 179 176 171 168 167 169 168 165 163 161 165 172 176 173 173 174 179 187 184 183 184 180 174 176 187 186 176 170 168 167 173 177 162 148
248 266 258 250 257 254 241 238 249 263 233 104 116 148 320 271 225 246 252 256 253 196 135 161 213 198 169 191 157 152 159 149 146 141 143 138 132 133 133 133 132 130 131 136 139 137 140 144 145 151 155 159 168 177 180 179 184 184 183 185 183 183 182 180 176 174 172 171 175 173 170 163 156 161 167 170 171 174 171 174 187 185 184 186 188 181 177 191 191 183 177 174 178 185 191 188 186
233 255 250 244 247 249 247 229 233 277 217 108 81 44 327 287 193 237 248 255 259 193 175 204 201 204 164 147 133 144 159 150 144 146 149 142 138 141 136 136 134 133 136 140 143 142 144 146 145 150 152 156 163 174 179 180 187 187 185 188 186 185 185 182 179 178 175 180 184 177 171 165 161 170 172 171 171 173 172 176 180 176 179 184 194 193 183 190 191 192 190 190 192 199 212 216 218
225 231 239 241 244 246 254 252 303 351 280 68 40 14 322 298 301 230 228 233 242 219 204 199 183 161 97 106 124 145 155 149 149 154 153 149 149 146 141 141 139 139 141 144 149 146 148 152 152 151 150 152 153 159 172 181 189 187 185 188 190 190 189 185 182 184 182 184 189 179 172 176 177 184 184 180 178 179 182 183 177 172 176 187 202 204 196 194 192 195 200 203 205 210 221 226 229
226 233 235 240 249 257 359 318 341 326 306 355 348 326 317 299 312 261 240 230 219 217 204 178 170 121 95 110 135 150 151 152 156 160 158 157 154 148 145 142 140 142 144 147 151 148 148 154 153 151 150 151 153 156 166 176 182 181 182 188 192 196 198 193 185 190 193 188 188 185 186 189 188 192 187 186 189 183 184 184 182 181 179 191 205 205 206 202 196 198 203 206 206 208 215 220 216
227 240 241 238 254 285 32 306 293 290 309 311 292 311 296 283 308 272 261 244 215 214 200 181 184 149 125 135 154 157 154 158 161 163 163 159 152 148 146 142 144 145 145 146 147 148 149 152 151 150 150 152 155 154 161 169 174 178 183 188 193 201 203 199 193 196 201 196 188 189 200 200 193 197 188 190 197 177 179 187 189 193 188 198 204 198 206 207 203 200 206 207 200 200 210 222 217
223 229 246 251 278 290 265 261 262 271 289 283 288 289 278 309 304 261 259 252 219 214 201 194 194 162 147 145 152 159 159 163 166 168 164 159 153 149 146 143 145 144 146 147 145 151 151 152 151 150 152 157 161 155 163 166 168 177 179 184 193 200 201 197 197 197 200 203 198 193 208 210 194 205 193 191 199 173 178 192 192 198 192 201 211 203 202 202 200 194 201 204 197 201 208 220 228
241 229 250 267 313 279 256 254 258 280 272 263 263 270 292 319 267 246 250 250 228 224 204 202 195 153 147 151 155 165 172 173 170 170 162 156 152 147 146 141 138 140 149 150 149 155 155 156 153 153 157 163 169 168 175 174 178 182 176 182 190 194 203 207 203 201 204 208 207 201 210 209 193 207 200 190 197 180 192 205 196 194 186 198 216 213 205 198 195 189 195 199 197 204 206 203 212
247 235 237 255 271 267 273 273 258 259 252 249 261 286 316 280 253 225 243 243 204 243 189 192 164 130 140 150 160 171 172 179 174 165 155 153 150 145 144 140 139 143 150 150 150 155 159 160 154 160 163 163 173 174 173 178 190 185 178 193 191 187 201 212 210 206 207 204 205 206 208 205 195 201 199 190 193 182 196 214 204 189 180 192 202 203 206 200 194 194 197 199 202 207 205 198 198
242 252 238 237 250 259 268 259 249 240 243 249 270 281 265 257 258 193 225 182 109 112 119 124 113 120 143 145 168 185 168 172 170 156 151 153 151 144 143 142 144 145 147 149 151 156 163 163 158 167 162 157 179 178 168 173 182 175 172 188 190 189 195 202 206 204 200 194 204 211 207 202 199 201 195 187 188 173 171 214 235 198 180 192 184 192 207 198 194 201 204 205 212 215 209 205 202
231 248 253 238 243 249 247 242 240 237 239 243 250 258 247 254 272 193 197 126 138 176 129 107 106 129 158 153 174 186 164 164 161 152 154 156 150 144 144 144 142 145 148 149 153 158 160 157 158 159 151 157 176 188 177 173 176 170 169 181 187 192 197 200 204 203 195 190 200 207 200 200 201 196 187 183 180 163 139 145 283 215 182 206 193 196 209 198 197 199 207 210 213 220 211 206 210
220 234 249 245 243 240 234 231 232 231 228 230 230 235 225 206 224 186 132 107 160 168 133 120 125 143 158 160 179 177 159 160 160 156 155 153 150 148 148 147 145 149 151 148 153 154 149 152 155 151 148 157 162 166 186 165 177 181 174 182 186 187 197 204 206 209 197 189 192 192 193 197 194 183 178 182 161 137 128 137 282 230 187 194 200 194 207 213 207 198 209 207 200 221 215 205 212
220 237 255 252 255 246 233 234 228 224 214 221 229 222 177 168 220 201 117 129 169 157 140 135 141 153 172 174 184 180 160 161 163 157 156 154 154 155 155 154 152 152 149 148 151 146 145 152 149 141 137 132 152 163 155 132 200 218 193 182 188 182 188 200 209 212 195 183 184 184 189 193 200 187 155 162 177 156 170 185 275 256 214 207 217 208 213 215 212 215 220 219 203 209 215 207 211
253 245 259 243 248 242 226 231 222 219 202 208 232 214 157 184 209 159 128 153 179 157 145 143 149 166 185 177 176 182 165 166 167 160 160 159 159 161 159 157 152 148 148 148 144 140 146 143 131 126 123 123 131 131 126 169 245 241 219 185 191 177 175 201 214 214 191 169 168 176 186 192 218 204 146 163 224 226 189 200 254 264 237 223 223 215 216 204 224 239 218 227 217 195 205 208 211
243 242 255 230 224 223 215 216 207 213 192 187 231 214 179 201 165 117 135 161 185 166 152 156 167 173 182 177 173 178 168 168 171 165 164 162 160 157 155 154 149 147 147 145 138 139 141 124 119 116 115 127 112 54 85 109 319 270 229 194 176 161 184 217 217 206 186 168 160 167 175 187 226 215 158 182 245 247 193 225 245 249 238 225 215 208 208 203 221 233 189 209 206 191 203 206 207
239 231 250 237 218 206 195 202 194 203 178 163 224 226 190 185 128 117 147 168 184 176 160 163 168 169 180 180 173 175 167 169 175 170 164 159 154 151 154 157 155 150 145 144 141 141 137 122 123 118 115 129 121 85 69 65 54 20 227 186 160 156 186 218 213 179 169 182 176 165 155 160 203 206 174 203 229 237 221 245 242 233 234 225 211 203 202 204 209 207 193 195 195 194 198 196 199
231 221 227 236 235 180 165 184 191 193 157 168 221 238 206 162 125 136 159 177 197 181 163 173 176 167 180 177 163 172 169 166 171 166 157 152 154 156 159 164 161 153 146 146 146 143 137 128 132 127 122 130 122 111 97 83 83 59 35 109 119 147 159 192 207 190 185 197 182 162 146 129 148 151 164 203 202 218 235 243 239 232 232 217 206 203 199 204 210 210 199 187 191 197 193 187 189
223 225 210 227 240 152 152 176 199 206 167 186 222 239 214 160 131 146 165 187 209 197 171 184 187 156 163 174 150 164 165 158 160 158 155 157 169 164 160 167 164 154 148 148 147 145 141 135 137 138 134 132 127 123 114 104 97 86 74 84 94 143 149 116 127 164 182 201 184 138 135 126 135 154 170 196 206 227 236 237 237 233 219 202 202 203 201 205 209 215 209 192 194 200 192 178 177
211 232 216 218 218 158 159 180 198 216 179 187 220 247 228 140 130 153 173 194 202 212 192 185 192 159 161 174 134 155 159 162 162 159 163 165 176 170 164 172 166 154 151 150 149 148 144 141 143 144 143 140 135 129 125 122 112 103 101 102 96 127 152 142 110 97 106 154 134 107 120 131 140 155 180 197 210 224 228 229 234 230 212 200 202 205 204 208 210 215 218 210 207 215 206 182 178
193 229 237 225 236 209 167 169 186 201 202 203 207 240 248 130 137 164 174 204 200 210 209 188 204 183 162 156 165 177 164 173 177 167 170 171 176 177 174 174 166 155 154 153 152 151 146 144 146 147 147 145 141 138 134 130 122 113 99 97 87 93 117 119 128 120 77 76 89 99 106 116 133 155 175 189 206 220 224 226 232 228 217 208 209 210 209 210 213 213 217 219 217 222 214 188 175
192 206 235 211 245 271 195 145 169 190 212 230 203 223 247 175 155 179 176 209 210 205 212 200 216 201 170 174 179 172 160 180 195 175 167 176 184 183 179 173 166 158 155 155 154 153 149 145 148 149 150 148 145 145 141 136 130 125 113 108 103 96 101 88 90 111 96 76 76 88 98 104 119 150 173 180 194 217 218 220 230 227 220 218 216 218 218 216 214 215 220 224 223 233 232 192 154
308 222 245 221 209 241 212 120 128 207 217 238 215 209 245 226 194 203 182 205 229 209 203 206 224 212 196 201 182 168 177 182 190 180 169 185 196 185 178 172 166 160 157 157 156 158 152 149 152 151 153 152 151 155 152 152 148 138 134 125 117 101 92 83 73 84 100 91 75 81 89 95 109 123 173 186 194 222 224 217 223 226 225 225 220 219 224 225 220 218 221 226 228 239 248 231 165
323 285 265 258 224 216 213 130 115 245 247 240 226 211 245 245 219 216 187 204 233 218 202 204 218 217 211 217 199 181 177 171 182 183 180 197 199 184 174 170 167 163 161 161 161 162 158 156 156 153 156 156 157 166 163 161 153 142 143 133 124 116 108 108 92 77 85 88 74 75 74 74 91 92 129 179 204 227 233 223 215 222 227 226 225 225 228 230 227 220 219 227 231 236 244 249 223
279 268 259 250 242 231 217 137 135 201 245 250 234 222 253 250 228 225 201 213 230 219 206 206 209 214 214 216 217 190 160 167 189 182 186 202 195 178 170 167 170 170 166 166 167 166 162 162 160 155 157 159 163 169 161 157 145 140 143 134 129 122 111 112 108 91 88 89 71 64 63 61 66 61 61 73 208 228 230 228 220 227 232 225 226 232 232 232 231 228 228 233 237 239 242 245 231
255 251 253 245 234 232 119 120 161 191 232 254 238 220 242 245 232 218 205 219 228 218 210 209 206 210 214 210 216 206 176 175 179 169 183 200 189 174 168 167 172 173 171 171 171 170 166 166 165 160 159 159 162 161 158 155 138 129 128 124 122 112 93 86 95 98 91 86 74 68 66 62 65 67 72 90 118 223 248 229 224 237 243 236 226 228 232 229 227 227 227 231 238 239 236 236 233
245 241 246 246 232 236 202 145 193 218 245 274 277 249 243 250 235 209 210 222 219 208 210 214 212 208 213 216 210 211 204 184 167 165 184 192 183 176 174 173 174 175 177 178 177 176 173 172 170 164 162 159 158 157 157 149 134 125 118 113 108 105 104 98 101 102 93 87 81 75 74 70 66 65 60 68 95 82 44 57 231 259 257 252 236 235 242 233 224 217 216 228 238 243 238 220 211
230 238 249 258 246 252 269 164 180 227 238 258 275 265 243 242 232 214 208 212 208 201 204 207 210 207 208 221 222 219 222 205 181 177 186 190 186 184 182 180 179 179 181 182 182 180 178 177 172 166 163 159 157 158 156 149 142 133 127 124 116 112 119 125 121 112 103 98 91 82 79 77 70 67 61 56 71 81 73 67 54 55 65 56 89 167 21 357 317 113 68 320 260 288 290 126 135
231 220 237 267 274 264 253 197 185 235 232 209 228 249 246 235 229 221 201 197 211 206 201 200 194 197 199 204 215 221 228 226 203 186 190 201 196 191 189 185 184 185 185 183 182 182 180 177 173 167 163 160 158 158 158 158 155 148 145 144 140 138 140 139 130 121 115 106 100 94 86 82 78 73 72 70 74 80 82 81 69 68 70 58 49 57 42 17 4 41 40 29 42 19 355 143 164
259 199 207 249 267 252 239 231 220 249 252 168 200 251 263 241 227 217 195 197 209 198 200 207 193 190 199 197 196 201 204 211 221 209 200 204 202 198 197 192 190 188 184 182 180 181 180 176 174 169 164 162 160 161 162 164 164 161 160 157 152 151 145 135 128 122 116 111 109 105 97 93 89 84 81 80 79 79 83 80 61 56 66 63 57 58 43 24 19 30 30 26 34 33 32 95 140
280 130 200 230 247 236 231 241 237 253 261 167 195 240 263 260 234 197 190 202 205 190 197 214 201 193 199 201 195 193 191 185 211 221 207 203 206 206 203 198 196 190 183 180 179 181 179 176 173 169 166 165 163 163 165 170 171 167 168 165 159 155 143 134 133 127 121 119 120 116 111 108 99 95 92 88 84 80 80 76 63 57 63 67 71 66 49 37 35 35 33 28 30 34 33 55 91
255 270 250 243 245 232 224 239 241 251 260 230 217 229 249 253 228 179 182 210 219 202 197 204 203 200 192 192 204 187 193 223 226 231 225 217 217 215 208 202 200 193 186 183 181 179 177 174 172 170 169 167 165 165 168 175 176 171 174 171 163 156 146 143 142 135 131 129 128 124 120 114 106 103 100 96 93 89 84 80 74 66 59 60 64 65 57 49 44 39 41 40 39 41 36 37 50
277 287 262 253 250 236 227 241 249 252 252 254 245 228 240 255 237 196 189 220 237 214 193 187 177 180 166 151 206 202 195 243 261 255 243 237 237 232 219 205 199 195 191 186 182 177 174 172 169 170 171 168 168 168 169 177 179 175 178 176 167 158 153 155 149 142 142 139 137 134 130 123 117 114 110 105 100 97 93 87 83 76 67 65 67 71 69 64 59 53 52 50 47 47 45 43 42
286 265 247 241 244 241 237 241 254 258 240 243 245 231 234 253 248 223 189 218 253 186 164 157 147 147 121 98 176 333 6 354 336 324 322 303 265 247 231 212 198 194 192 186 181 176 173 171 169 171 172 170 171 170 171 178 180 180 181 178 171 162 160 161 154 151 153 149 147 145 141 134 129 125 121 118 111 106 101 95 92 88 81 77 76 76 73 71 71 66 61 58 53 51 47 47 45
255 246 239 234 233 231 238 237 235 247 248 245 240 225 222 241 257 234 144 135 136 150 157 151 135 108 79 51 22 25 11 356 347 340 337 330 303 257 233 216 200 192 188 185 182 178 175 173 171 171 172 172 173 173 174 178 181 183 183 179 175 167 166 166 161 161 161 158 158 155 150 144 140 139 135 130 125 119 112 106 102 95 89 86 83 81 77 75 73 69 66 63 58 55 50 47 47
237 234 235 238 233 223 234 236 227 239 252 253 230 221 221 244 262 198 137 148 146 144 146 131 122 75 63 46 25 29 15 3 360 353 346 336 319 263 227 212 199 192 190 187 183 179 178 177 176 174 172 172 174 174 176 179 182 184 184 181 178 173 172 173 170 168 168 167 166 162 160 157 153 152 150 146 143 137 129 122 113 103 97 91 88 85 82 80 79 76 73 68 64 60 55 53 51
233 233 231 236 235 235 241 239 234 239 240 226 210 227 239 255 259 147 138 135 128 134 124 106 108 90 67 37 28 34 29 24 16 9 6 355 334 266 214 204 198 194 197 194 185 182 183 183 182 178 174 172 173 175 177 180 183 185 185 184 181 179 179 180 179 176 176 175 170 168 168 165 164 165 162 159 157 153 145 137 129 118 111 104 99 95 88 84 83 82 79 74 71 65 61 58 53
236 241 237 243 248 247 253 257 259 263 248 207 174 186 249 252 213 123 135 138 137 139 130 120 120 111 91 56 41 37 38 36 29 26 21 11 0 337 193 198 201 197 201 199 191 187 187 186 185 181 175 173 174 176 178 180 183 185 187 187 186 185 184 185 187 183 183 182 176 173 173 170 170 171 169 167 165 163 157 150 143 136 131 124 115 108 100 94 88 88 87 82 78 74 69 66 57
237 245 237 241 250 251 261 268 273 299 301 245 199 215 260 188 143 151 149 152 154 147 141 141 136 120 102 78 60 44 43 43 38 37 27 26 37 40 169 192 199 197 200 200 193 190 188 186 185 182 178 175 175 177 179 181 182 185 188 189 191 191 189 190 191 188 187 188 182 177 177 176 173 172 171 169 169 169 165 160 156 150 146 140 133 126 118 112 105 101 100 96 95 90 83 78 67
251 242 243 253 255 256 264 259 233 222 264 259 232 236 244 178 170 172 168 167 159 158 164 155 137 127 115 89 73 58 51 48 48 51 37 30 47 74 129 168 180 184 190 192 189 187 186 186 187 185 183 180 179 179 180 182 183 187 191 192 193 195 195 195 195 192 188 189 187 183 182 180 177 175 172 171 173 174 172 170 167 163 159 153 148 143 137 133 126 118 116 113 113 112 104 98 88
271 254 261 273 258 254 267 263 245 238 252 252 239 244 242 233 208 172 180 189 175 177 178 156 147 141 120 100 88 75 64 60 58 64 59 42 44 59 91 135 151 158 166 171 176 178 182 186 187 186 186 184 184 183 182 184 186 190 194 195 196 199 200 200 200 196 190 189 191 190 188 186 181 178 174 173 175 175 176 177 174 172 170 165 160 156 152 151 147 143 139 135 134 134 131 124 114
250 270 294 286 258 251 251 254 259 260 263 262 253 254 250 249 228 172 190 203 188 186 180 161 162 150 119 107 100 88 76 71 65 66 69 64 58 61 70 95 124 136 139 145 153 157 166 174 178 184 186 185 186 186 184 186 190 194 198 199 202 203 204 204 204 200 194 194 197 196 195 191 186 183 178 177 178 178 178 180 180 180 177 174 170 165 163 163 162 162 160 159 159 157 157 152 143
228 256 269 262 261 269 262 255 259 259 262 267 266 264 257 253 225 177 194 208 193 184 180 170 158 136 119 108 100 92 84 76 73 71 72 75 76 75 75 79 99 107 106 114 122 129 144 156 166 179 182 181 183 183 183 187 192 198 202 204 207 209 212 215 214 209 203 201 204 205 202 196 191 189 185 181 181 182 182 182 184 184 183 181 178 174 172 172 171 174 175 174 173 178 182 176 173
226 241 246 243 247 260 268 262 259 263 267 268 269 267 260 258 201 177 193 203 193 181 179 170 144 127 119 108 101 97 92 85 80 79 78 82 87 91 95 93 87 85 84 88 91 101 127 145 159 171 178 185 186 179 177 184 191 201 208 211 212 210 213 221 228 230 221 211 212 215 209 202 199 197 192 188 187 187 186 187 188 188 187 186 183 181 179 179 180 181 182 181 180 187 193 188 192
278 266 264 259 253 252 260 258 254 260 268 270 275 275 277 29 69 231 219 200 187 180 177 163 139 129 121 113 109 105 102 98 91 87 83 82 86 89 93 92 85 82 84 87 89 95 111 124 133 144 162 191 197 192 192 195 195 201 209 214 217 218 218 220 227 238 237 222 217 222 220 213 208 205 199 195 193 191 190 190 191 191 192 191 189 188 185 185 187 185 183 184 186 193 198 196 199
Height
769 770 768 769 767 767 763 760 769 761 759 764 749 739 727 715 720 727 730 728 729 725 719 720 718 717 722 725 719 722 730 734 738 744 756 753 742 745 748 751 756 759 763 766 768 770 773 775 777 778 780 781 783 784 786 787 788 789 790 792 793 794 796 797 798 799 800 801 802 803 804 805 806 806 807 807 808 809 809 810 810 811 812 812 813 814 814 815 815 816 817 817 818 818 819 819 820
769 770 768 769 765 767 761 755 771 762 757 763 744 733 722 717 727 730 728 727 728 724 719 719 718 719 721 721 717 725 735 735 735 739 743 743 744 748 750 755 758 761 764 766 768 771 773 776 777 779 781 782 784 785 787 788 789 790 791 793 794 795 796 798 799 800 801 802 803 804 805 806 807 807 808 809 809 810 810 811 811 812 812 813 814 815 815 816 817 817 818 818 819 819 820 820 820
769 769 767 768 763 763 758 756 770 764 758 757 737 721 716 723 728 725 724 724 725 722 722 721 722 723 726 730 727 733 739 734 735 738 740 743 746 750 754 758 760 763 765 766 769 771 774 776 777 780 781 783 784 786 787 788 789 790 792 793 794 796 797 799 800 801 802 803 804 805 806 807 808 808 809 809 810 811 811 812 812 813 813 814 815 816 817 817 818 818 819 820 820 821 821 821 821
768 768 766 764 762 762 762 763 765 761 758 749 734 718 717 724 723 723 724 724 723 722 725 726 729 725 728 736 730 733 740 736 737 740 742 744 747 751 755 759 762 764 765 767 770 772 774 776 778 780 782 784 785 787 787 789 790 791 793 794 795 796 798 799 801 802 803 804 805 806 807 808 808 809 810 810 811 812 812 813 813 814 814 815 816 817 818 818 819 819 820 820 821 821 822 822 822
768 768 765 762 764 761 760 762 756 757 755 742 732 723 722 724 724 727 725 726 723 724 727 728 735 729 729 733 731 741 746 739 738 739 742 745 748 752 755 760 762 764 766 768 770 773 774 776 779 780 783 784 786 787 788 790 791 792 793 795 796 797 799 800 802 803 804 805 806 807 808 809 809 810 810 811 812 813 814 814 814 815 815 816 817 818 818 819 819 820 821 821 822 822 823 823 823
767 765 763 761 760 755 760 763 755 752 741 730 728 723 726 728 728 730 728 727 723 723 725 728 734 733 737 738 736 741 744 744 741 740 743 746 751 754 757 760 762 765 767 768 771 773 775 777 779 781 784 785 787 788 789 791 791 793 794 796 797 798 800 801 803 804 805 806 807 808 809 810 810 811 811 812 813 814 814 815 815 815 816 817 817 818 819 820 820 821 822 822 822 823 823 824 824
765 764 762 764 759 756 767 764 753 746 730 723 725 722 727 731 729 730 731 731 729 726 725 728 727 734 745 742 742 741 739 742 740 742 745 747 753 755 757 760 763 766 767 769 772 774 776 778 780 782 784 786 788 789 790 791 793 794 795 797 798 799 801 802 804 805 806 807 808 809 809 811 811 812 812 813 814 815 815 815 816 816 817 817 818 819 819 820 821 822 822 822 823 823 824 824 825
764 762 757 764 763 758 765 759 748 740 726 722 724 725 729 731 730 730 731 732 732 729 729 728 723 738 745 737 748 747 740 742 741 746 747 749 754 755 758 761 764 766 768 770 772 775 777 779 781 783 785 787 788 790 791 792 794 795 796 798 799 800 802 803 804 806 807 808 809 810 811 811 812 813 813 814 815 815 816 816 816 817 818 818 819 819 820 821 822 822 823 823 823 823 824 824 825
761 761 757 762 764 758 758 754 745 733 724 724 726 728 730 731 731 731 731 730 730 729 731 728 724 740 746 743 754 750 744 747 746 748 749 752 755 756 758 761 764 766 769 771 773 775 777 780 782 784 786 788 789 791 792 793 795 796 798 799 800 801 802 804 805 806 807 808 809 810 811 812 813 814 814 815 815 816 816 816 817 818 818 819 819 820 820 821 822 823 823 823 824 824 824 825 826
759 758 758 761 762 760 756 749 741 731 724 724 725 726 729 731 731 731 731 730 728 730 730 726 727 736 744 753 758 750 749 750 749 751 752 754 755 757 759 761 765 766 770 772 774 776 779 782 783 785 787 788 790 792 793 795 796 797 799 800 801 802 803 804 805 807 808 809 810 811 812 813 814 814 815 816 816 816 816 817 818 818 819 819 820 820 821 821 822 823 823 824 824 825 825 825 826
761 756 756 762 764 762 755 745 736 726 723 726 726 723 726 728 731 732 730 729 727 730 730 729 732 732 741 755 757 751 750 751 752 753 753 755 756 759 760 762 765 767 770 772 775 777 779 782 783 786 787 789 791 792 795 796 797 799 800 801 803 803 804 805 806 807 808 810 810 811 812 813 814 815 816 816 817 817 817 818 818 819 819 820 820 821 822 822 823 823 824 824 824 825 825 826 826
763 756 756 766 762 755 747 740 732 724 726 731 728 722 725 728 734 735 732 730 727 730 729 732 733 728 743 757 757 753 751 753 754 754 755 756 758 760 762 764 766 768 771 772 775 777 779 782 784 786 787 789 791 793 795 796 798 799 801 802 803 804 805 806 807 808 808 810 811 812 813 814 815 815 816 816 817 817 818 818 818 819 819 820 821 821 822 823 823 824 824 825 825 826 826 826 827
761 755 755 762 754 747 741 738 733 732 735 730 725 724 727 732 735 733 732 730 727 731 728 727 727 729 749 758 758 758 754 754 754 756 756 757 760 761 764 765 768 770 772 774 775 777 780 782 784 786 788 790 792 794 796 797 799 800 801 802 804 805 806 807 808 809 810 811 812 813 813 814 815 815 816 816 817 818 818 819 819 819 820 820 821 822 822 823 824 824 825 825 825 826 827 827 827
756 750 753 757 749 744 741 742 737 738 737 723 724 728 730 734 733 730 731 733 728 725 720 718 722 737 757 760 764 765 758 756 756 757 757 759 762 763 766 767 769 770 772 775 776 778 780 783 784 786 788 791 792 794 796 797 798 800 801 802 804 805 806 808 809 811 811 812 812 813 814 814 815 815 816 816 817 818 818 819 819 820 820 821 821 822 822 823 824 824 825 825 826 827 827 828 828
751 747 752 758 752 746 742 743 739 739 733 723 729 729 731 731 728 732 731 734 727 713 712 717 719 736 754 756 763 764 757 757 756 758 759 761 762 764 767 767 769 771 773 775 777 780 781 783 785 787 789 791 793 794 795 797 798 800 801 802 803 805 806 808 809 811 811 812 812 813 814 814 815 815 815 816 817 818 818 819 819 820 820 821 821 822 822 823 823 824 824 825 826 827 828 828 828
748 748 756 760 756 749 740 738 738 741 732 725 730 727 735 731 724 733 727 726 723 710 717 725 722 731 742 742 747 753 755 756 757 759 760 762 764 766 767 768 770 772 774 775 778 780 782 784 785 788 789 791 793 794 795 797 799 800 801 802 803 805 806 807 809 810 810 811 812 812 813 814 815 816 816 816 817 818 818 819 819 820 821 821 822 822 822 823 823 824 824 825 826 827 828 828 828
747 753 761 760 754 748 738 734 737 739 730 724 729 728 739 735 725 727 720 722 725 718 724 726 722 724 731 734 738 748 755 755 756 760 760 763 764 765 767 769 771 773 775 776 778 780 782 785 786 788 789 791 793 794 797 797 799 801 801 802 803 805 806 808 808 809 809 810 811 812 813 815 816 816 816 816 817 818 819 820 820 820 821 821 822 821 822 822 823 824 824 825 826 827 828 828 828
751 758 762 758 750 741 731 730 730 733 730 727 731 733 739 738 730 725 724 728 726 725 725 723 724 725 730 737 742 749 754 755 757 760 760 762 763 764 766 768 771 773 775 776 778 779 782 784 786 787 789 791 793 795 798 798 800 801 802 803 804 805 806 807 808 808 809 809 811 812 814 814 815 815 816 817 816 818 818 819 820 820 821 821 821 821 821 822 823 824 824 825 826 827 828 828 829
753 755 757 753 741 730 726 729 731 733 734 732 734 734 736 737 731 726 731 733 727 730 728 726 731 734 738 744 749 752 753 755 757 759 760 761 762 763 765 768 771 773 775 776 777 779 781 783 785 787 789 792 794 796 798 799 800 801 802 803 803 804 805 806 807 808 808 810 812 812 813 813 814 815 816 817 816 817 818 819 819 820 821 821 820 821 821 822 823 823 824 825 826 827 827 828 828
752 751 754 745 732 727 728 733 735 734 735 737 737 735 735 732 728 728 733 732 727 730 728 730 737 739 746 750 753 755 753 755 758 759 760 760 761 763 765 768 771 773 775 776 777 779 781 782 784 786 789 791 793 795 797 798 800 800 801 802 802 803 803 805 806 807 808 810 811 812 812 812 813 814 815 816 816 816 817 818 819 820 820 820 821 821 822 822 822 823 824 825 825 826 827 827 827
748 748 750 736 729 735 733 733 735 734 736 738 738 737 735 729 727 730 732 733 731 727 724 728 732 735 744 750 751 754 754 756 759 760 759 759 761 763 765 768 771 773 775 776 778 780 781 782 784 786 788 790 792 793 795 797 798 799 800 801 801 800 801 803 805 806 807 808 810 812 812 811 812 813 814 815 816 816 816 817 818 819 819 820 821 821 822 822 822 823 823 824 825 826 826 827 827
747 745 744 733 732 740 734 732 735 736 737 738 738 738 733 728 729 729 730 735 732 723 719 721 723 729 740 747 751 755 758 759 759 760 759 759 761 763 766 768 770 773 774 776 777 779 781 782 783 786 788 790 792 793 794 795 795 796 797 798 799 799 799 801 803 805 806 808 810 812 811 811 812 814 814 814 815 815 816 817 817 818 818 819 820 821 821 822 822 822 823 823 824 825 826 826 827
750 745 740 735 736 739 735 734 736 737 738 739 737 733 730 731 730 726 727 729 725 717 715 716 718 728 738 745 753 755 758 762 759 757 757 760 762 764 766 768 771 773 774 775 777 779 780 781 783 785 786 788 791 792 794 795 795 796 796 796 799 800 800 801 803 805 807 808 810 812 811 811 812 813 813 813 814 814 815 816 816 816 816 818 818 819 820 821 821 822 822 822 823 824 825 826 827
751 746 738 737 737 738 737 735 736 736 737 736 733 731 732 734 730 726 726 724 722 719 716 719 723 734 742 748 761 759 753 758 756 755 758 761 763 765 767 769 771 772 774 775 777 778 780 781 782 784 785 787 789 790 792 795 796 798 798 798 799 801 802 803 804 805 807 807 809 811 810 810 811 811 811 811 812 813 814 814 814 814 815 817 817 818 819 820 821 821 822 822 823 823 824 825 826
749 747 738 737 738 737 735 734 735 734 734 732 731 734 731 729 727 727 726 723 723 721 721 727 731 741 747 751 762 759 751 753 754 756 759 761 764 765 767 768 770 772 773 775 776 778 779 780 782 783 785 787 788 789 790 792 794 796 798 799 799 800 802 802 803 804 805 806 808 809 808 808 809 810 809 810 810 811 812 812 813 814 815 816 817 817 818 819 820 820 821 822 822 823 823 825 826
743 742 738 738 738 735 733 733 734 733 731 730 733 734 729 725 726 728 726 724 724 721 725 734 738 745 748 751 757 753 749 752 753 756 759 761 764 764 767 768 770 772 774 775 776 777 779 781 782 784 786 787 788 789 790 791 793 794 796 797 798 799 800 800 801 802 804 806 806 806 806 807 807 808 809 809 810 810 810 811 812 812 814 815 816 817 817 818 819 820 820 820 821 822 822 823 824
738 739 738 738 738 732 732 734 732 731 730 730 733 732 728 724 729 733 728 724 724 723 730 736 741 749 751 754 758 752 749 752 753 755 758 760 763 764 766 768 769 772 774 775 776 778 780 781 782 784 786 787 788 789 790 791 792 793 794 796 796 797 798 799 799 800 802 803 804 805 805 806 806 806 807 808 810 810 811 811 812 812 813 814 815 816 817 818 818 819 819 819 820 821 822 822 823
739 741 741 739 737 733 733 734 732 731 731 729 728 728 729 727 730 733 728 725 724 725 732 738 744 751 754 755 757 753 749 751 753 755 757 759 761 764 766 767 769 771 773 775 776 778 780 781 783 785 787 788 789 789 790 792 792 793 793 794 796 796 797 798 798 798 799 801 803 803 804 805 805 806 807 808 809 810 811 812 812 812 813 814 815 816 817 818 818 818 818 819 819 820 821 821 822
740 741 744 739 735 735 732 731 730 730 730 726 725 733 736 731 729 728 726 726 724 725 730 738 743 749 753 752 752 752 749 749 752 755 758 759 762 764 767 769 770 771 773 775 777 779 781 782 784 786 788 789 790 791 791 792 793 793 794 794 795 796 797 797 797 797 798 801 802 803 803 805 805 805 806 807 810 811 811 812 812 812 813 813 814 815 817 818 818 818 819 819 819 820 821 821 822
741 740 741 738 736 736 730 727 728 728 727 723 730 743 740 729 727 728 726 726 726 728 729 734 739 745 750 750 749 750 750 752 754 755 758 760 764 766 768 770 772 772 773 776 777 780 782 783 786 787 789 790 791 792 792 793 794 794 794 795 796 797 797 798 797 798 799 801 803 803 803 804 805 805 806 808 809 810 811 812 812 812 812 812 814 815 816 817 818 818 819 819 819 820 820 821 822
741 739 739 738 738 734 726 726 729 731 728 723 732 745 736 725 728 728 726 726 727 729 730 733 736 740 745 746 749 751 751 755 758 759 761 763 765 767 768 770 772 772 773 776 778 780 782 784 787 788 790 791 792 793 793 794 795 795 795 796 797 798 798 798 798 799 800 801 802 803 803 804 805 806 807 808 809 810 811 812 812 812 812 812 813 814 815 816 817 818 818 819 819 820 820 821 822
737 742 744 737 732 731 727 726 727 730 728 724 733 742 732 723 727 727 725 727 727 728 731 733 732 736 743 745 749 753 754 755 759 763 764 766 768 768 769 771 771 773 773 776 778 780 783 784 787 789 790 792 792 794 794 795 795 796 797 797 798 799 799 799 799 800 801 801 802 802 804 804 805 806 807 808 809 810 811 811 812 812 812 812 813 813 814 815 816 816 817 818 818 819 821 822 822
736 739 742 734 730 733 732 727 724 724 727 727 732 736 728 724 727 726 726 726 728 729 729 731 731 736 745 747 751 757 759 758 758 764 766 767 770 769 770 772 771 772 774 776 778 780 782 785 787 789 790 792 793 794 795 795 796 797 797 798 799 799 800 800 801 802 802 801 802 803 804 804 805 807 807 808 809 810 810 811 811 811 812 812 813 813 814 814 815 815 816 817 818 820 821 822 821
738 736 735 732 728 728 729 731 725 722 729 730 731 732 727 725 727 727 727 726 728 731 730 730 731 734 741 747 756 760 760 762 761 763 767 768 770 770 771 773 772 772 774 776 778 780 782 785 787 789 790 792 793 794 795 796 797 797 798 799 799 800 801 801 801 802 803 803 803 804 804 805 806 806 807 808 809 809 810 810 811 811 811 812 813 813 813 814 814 815 815 816 818 820 823 822 820
736 738 738 737 734 729 727 732 728 724 732 731 728 734 729 722 724 725 727 726 728 731 730 731 730 731 736 742 752 757 759 766 764 760 765 769 769 769 769 771 771 772 774 776 778 780 782 785 787 789 791 792 793 794 795 797 797 798 799 799 800 800 801 801 802 803 804 805 805 805 806 806 807 807 807 807 808 809 809 810 810 810 811 812 812 813 813 814 813 814 814 815 816 818 821 821 819
732 734 735 735 735 733 726 727 728 725 734 732 727 735 731 722 723 725 725 727 729 730 730 733 732 731 734 737 743 752 759 763 761 758 763 768 768 767 767 768 770 771 773 776 778 780 782 785 787 789 791 792 794 795 795 797 797 798 799 799 800 801 802 802 803 803 804 805 806 807 807 807 808 808 808 808 809 809 809 810 810 810 811 811 812 812 812 813 813 813 814 815 815 816 818 819 819
739 738 736 732 732 732 721 724 731 728 736 736 725 731 731 724 725 724 726 730 732 732 732 734 734 733 734 734 736 745 753 754 754 757 761 766 767 765 765 766 768 771 773 775 777 780 782 784 786 788 790 792 794 795 796 796 797 798 799 800 800 802 803 803 804 805 805 806 807 807 807 808 808 808 809 809 809 809 809 809 810 810 810 810 810 810 810 812 813 813 813 814 814 815 816 818 818
746 744 742 737 733 730 719 724 732 731 740 738 724 730 734 728 727 726 728 734 735 732 733 735 734 734 733 733 733 737 747 752 752 754 759 764 765 763 763 765 767 769 772 774 776 779 781 784 786 788 790 792 794 795 796 796 797 798 799 799 800 801 802 803 804 806 806 807 807 807 807 808 808 808 809 809 809 809 810 810 810 810 809 809 810 810 811 812 813 814 814 813 813 814 815 818 819
749 745 744 741 733 728 727 730 733 733 742 739 728 734 737 729 725 726 729 733 732 728 729 732 732 734 733 733 734 734 741 747 748 751 758 760 760 759 761 763 766 768 770 773 775 778 781 783 786 788 789 791 793 795 796 797 797 798 799 800 801 802 803 804 805 806 807 807 808 808 808 808 808 809 809 809 810 810 810 810 810 810 810 810 810 811 811 812 813 814 814 813 813 814 816 818 819
748 744 744 741 730 729 737 739 737 736 740 739 734 735 737 731 726 727 729 729 727 727 728 729 729 732 733 732 733 734 737 740 744 750 754 755 755 756 759 761 763 766 769 771 774 777 779 782 784 787 789 791 793 795 796 797 798 799 800 801 802 803 804 806 807 808 808 808 809 809 809 809 809 810 810 810 810 810 810 810 810 810 810 810 810 811 810 811 812 812 813 813 813 814 816 817 819
744 741 741 738 729 730 736 740 742 741 742 741 741 745 743 735 732 729 726 727 728 729 731 732 731 731 732 733 733 734 736 736 741 748 751 750 751 753 756 759 761 764 766 769 772 775 778 781 783 786 788 790 792 794 796 797 799 800 801 802 803 804 805 806 807 808 809 809 810 810 810 811 811 811 811 811 811 811 811 811 811 811 811 811 811 811 811 811 811 811 812 812 812 813 814 817 819
742 739 738 736 732 734 737 741 747 752 751 741 742 760 753 730 727 728 725 730 732 730 731 733 733 732 733 736 737 737 738 737 738 742 747 750 751 752 754 757 759 762 764 767 770 773 776 779 782 785 786 789 791 793 796 797 799 800 801 802 803 804 805 806 807 808 809 810 811 811 812 812 812 812 812 812 812 812 812 812 812 812 812 812 812 811 811 811 811 811 812 812 812 813 814 817 819
745 736 734 736 735 738 741 742 749 755 752 740 740 760 758 733 724 726 726 732 732 730 731 730 729 731 732 734 735 737 739 739 741 741 743 748 750 751 753 755 757 759 762 766 769 772 775 778 781 783 785 787 790 792 794 797 798 800 801 802 803 803 804 806 807 809 809 810 811 812 813 813 813 813 813 813 813 813 814 813 813 813 813 813 813 813 813 813 813 813 813 813 814 814 815 816 819
748 737 733 737 736 739 742 743 747 745 741 743 741 746 756 747 733 726 727 733 732 732 734 731 728 729 731 731 733 735 737 739 742 743 742 745 748 749 752 753 755 758 761 764 767 770 773 776 779 782 784 786 788 790 793 796 797 799 800 801 802 803 804 806 808 809 810 811 812 812 813 814 814 814 814 814 815 815 815 815 815 815 815 815 815 815 815 815 815 815 815 815 816 816 817 817 818
744 737 734 734 734 736 738 741 744 739 743 753 743 739 757 754 733 725 730 735 735 733 734 733 731 731 732 734 736 736 738 740 741 742 743 744 745 748 749 752 754 756 759 761 764 767 770 774 778 780 783 785 787 789 792 795 797 798 800 801 801 803 804 806 808 809 810 811 812 813 813 814 815 815 815 816 816 816 816 817 817 816 816 816 816 816 816 817 817 817 817 817 818 818 819 818 818
737 735 735 733 732 733 736 742 743 744 756 762 746 741 758 754 734 729 736 739 736 733 733 734 733 734 736 738 739 738 738 739 740 740 742 743 745 746 747 749 752 755 757 760 762 765 768 771 775 779 782 784 786 787 790 793 796 797 799 800 801 802 804 806 807 809 810 811 812 813 814 814 815 816 816 817 817 817 818 818 818 818 818 818 818 818 818 818 818 819 819 819 820 820 820 820 820
735 739 739 737 736 735 740 742 743 756 767 758 743 738 751 759 743 729 735 738 733 731 735 736 736 737 739 740 739 738 738 739 739 739 740 743 745 746 746 747 750 753 756 758 761 763 766 768 771 776 779 782 785 786 789 792 795 796 798 799 800 802 804 805 806 808 810 811 812 813 814 814 815 816 817 817 818 818 819 819 819 819 820 819 820 819 820 820 820 820 820 821 821 821 821 822 822
738 740 739 747 750 746 751 750 751 771 770 748 737 734 747 762 746 726 731 734 730 732 736 739 740 740 741 741 740 739 740 740 740 740 741 742 745 746 746 746 748 752 754 756 759 761 763 766 768 772 775 779 783 785 788 791 793 795 797 798 800 801 803 804 806 807 809 810 811 812 813 814 815 816 817 818 818 819 819 820 820 820 821 821 821 821 821 821 821 821 821 822 822 822 822 823 823
740 740 745 762 768 766 771 767 763 770 761 741 735 739 750 754 736 725 731 732 731 734 735 738 743 744 744 743 742 741 742 742 742 742 743 743 745 745 744 745 747 750 754 755 758 760 762 764 766 769 771 775 779 783 786 789 791 794 795 797 799 801 802 804 805 806 807 808 810 811 812 813 815 816 817 818 818 819 820 820 821 821 821 822 822 822 822 822 822 822 822 823 823 823 823 823 823
742 741 751 766 772 780 785 774 767 765 755 743 738 746 757 749 731 725 730 731 732 735 737 740 743 746 746 744 742 743 743 744 745 745 746 746 745 745 744 745 747 750 755 756 758 759 761 763 765 767 770 773 777 780 783 787 789 792 794 796 798 799 801 803 804 805 806 807 808 809 811 812 813 815 816 817 818 819 819 820 820 821 821 822 822 823 823 823 823 823 824 824 824 824 824 824 824
738 732 741 755 760 772 778 769 767 764 757 751 748 756 759 750 739 729 727 731 732 733 737 741 743 744 745 744 743 744 745 746 748 748 749 749 747 746 746 747 748 751 755 757 758 759 760 762 764 767 769 771 775 778 781 784 787 790 793 795 796 798 799 801 802 804 805 806 806 808 809 810 812 813 815 816 817 818 819 819 820 820 821 822 822 823 823 824 824 824 825 825 825 825 825 825 825
736 726 737 749 745 751 760 759 758 760 763 758 754 755 744 737 738 730 728 733 732 735 738 740 744 743 744 746 746 747 748 749 751 752 752 750 749 749 749 749 750 752 755 757 758 760 760 763 764 766 769 771 774 776 779 782 785 788 791 793 794 796 797 799 800 802 803 804 806 806 808 808 810 812 813 815 817 818 818 819 820 820 820 821 822 822 823 824 824 825 825 826 826 826 826 826 826
736 734 742 738 728 736 753 757 754 761 772 762 750 749 739 736 740 730 731 735 732 736 738 738 743 744 745 749 748 749 750 751 752 754 754 752 750 751 751 752 753 754 755 757 758 760 761 763 765 767 769 771 774 776 778 781 784 787 789 791 793 794 796 797 798 800 802 803 805 805 806 807 808 810 811 813 815 816 818 818 819 820 820 821 821 822 823 823 824 825 825 826 826 827 827 827 827
736 741 738 728 726 732 744 759 763 766 771 758 745 748 745 746 746 733 732 737 735 736 736 738 743 743 746 749 750 752 752 752 754 754 756 756 753 754 753 754 755 755 756 757 759 760 762 763 765 766 769 771 774 776 778 781 783 786 788 790 792 793 795 796 797 799 801 802 804 804 805 806 807 808 809 811 813 814 816 817 818 819 819 820 821 821 822 823 824 824 825 826 826 827 827 827 827
731 733 726 732 747 749 746 759 769 770 771 762 749 746 742 742 742 735 735 736 735 736 735 738 743 743 746 749 751 754 754 755 755 755 757 758 758 758 757 756 757 757 757 758 759 761 762 763 764 766 769 771 774 776 778 781 783 785 787 789 791 792 794 795 796 798 799 801 802 803 804 805 806 807 808 809 811 812 814 815 816 818 818 819 820 820 821 822 823 823 824 825 825 826 826 827 827
726 729 726 731 742 746 745 749 754 760 768 765 757 751 743 736 730 731 734 732 731 735 736 737 741 743 747 750 751 754 756 757 757 757 759 760 761 761 761 761 760 759 758 758 759 760 761 764 766 768 770 772 775 777 778 780 782 784 787 788 790 792 794 795 796 797 798 800 802 803 804 805 805 806 807 808 809 810 812 813 814 816 817 818 819 819 820 821 822 822 823 824 824 825 825 826 826
731 735 736 736 734 736 740 741 740 746 757 761 762 759 745 728 721 723 728 729 729 732 735 737 740 744 748 751 753 755 757 759 759 759 760 760 762 763 764 765 764 761 759 758 760 761 763 766 767 769 771 773 775 777 778 780 782 784 786 787 790 791 792 794 796 798 799 799 801 802 803 804 804 805 806 806 807 808 809 811 812 813 815 816 817 818 819 819 820 821 822 823 823 824 824 824 825
732 734 734 735 735 739 749 751 739 737 747 750 755 759 744 724 720 722 723 726 727 729 734 738 741 746 750 753 755 756 757 759 760 760 761 761 762 763 764 765 764 763 761 762 764 765 767 768 769 771 773 775 776 777 779 780 782 784 785 787 789 790 791 793 794 796 798 799 800 801 803 803 803 804 805 805 806 806 807 808 810 811 812 814 815 816 817 818 818 819 820 821 822 823 823 824 824